Location: Holten
(52.5716°N, 6.1150°E)
Time: 20:27:53
(UTC+00:00)

Daily predictions for brighter satellites

Satellite Brightness Start Highest point End
(mag) Time Altitude Azimuth Time Altitude Azimuth Time Altitude Azimuth
In-Cosmos 22 Rocket 4.3 17:02:04 10° S 17:07:27 60° E 17:13:01 10° NNE
Cosmos 841 Rocket 3.7 17:02:53 10° SSW 17:08:04 78° WNW 17:13:16 10° NNE
ATLAS 3B R/B 4.2 17:01:23 10° NW 17:08:47 48° WSW 17:15:49 10° S
SAR-Lupe-4 3.9 17:07:14 10° SE 17:10:39 44° ENE 17:14:04 10° N
Cosmos 1125 Rocket 4.1 17:06:51 10° NNW 17:11:37 35° NE 17:16:22 10° ESE
Cosmos 1000 Rocket 4.5 17:08:16 10° S 17:14:24 76° E 17:20:38 10° NNE
IRS-1C 4.2 17:09:06 10° SSE 17:14:26 90° ENE 17:19:49 10° NNW
Landsat 7 4.4 17:11:02 10° S 17:15:38 61° W 17:20:17 10° NNW
Okean 2 Rocket 3.6 17:17:28 10° N 17:21:35 36° ENE 17:25:38 10° SE
YAOGAN 1 2.8 17:17:44 10° SE 17:21:48 46° ENE 17:25:54 10° N
Cosmos 2123 Rocket 4.1 17:16:23 10° S 17:22:36 64° E 17:28:50 10° NNE
NOAA 6 4.5 17:20:10 10° SE 17:24:55 39° ENE 17:29:41 10° N
Okean 1 Rocket 3.7 17:21:00 10° N 17:25:03 34° ENE 17:29:04 10° SE
Spot 4 Rocket 4.2 17:22:13 10° SE 17:27:06 48° ENE 17:32:01 10° N
COSMOS 2428 2.7 17:21:24 10° NNW 17:27:10 71° NE 17:32:53 10° SE
Cosmos 1980 4.1 17:25:23 10° NNW 17:30:47 42° NE 17:36:08 10° ESE
Sich 1 Rocket 4.1 17:26:52 10° N 17:31:08 38° ENE 17:35:23 10° SE
ARIANE 5 R/B 3.1 17:28:38 10° S 17:33:43 64° WSW 17:38:46 10° NNW
Cosmos 2237 Rocket 2.6 17:31:00 10° NNW 17:36:25 43° NE 17:41:49 10° ESE
Aureole 3 Rocket 3.6 17:32:26 10° N 17:36:33 31° ENE 17:39:46 10° SE
Cosmos 158 Rocket 4.1 17:33:04 10° S 17:37:43 48° ESE 17:42:23 10° NE
ATLAS 5 CENTAUR R/B 2.7 17:33:59 10° NW 17:38:02 49° SW 17:42:59 10° SSE
Cosmos 192 4.3 17:33:20 10° NNW 17:38:14 74° ENE 17:43:06 10° SSE
SeaSat 1 3.4 17:35:58 10° SSE 17:40:44 53° WSW 17:45:33 10° NW
Cosmos 1378 Rocket 3.5 17:36:45 10° S 17:41:01 63° E 17:45:16 10° NNE
ARIANE 6 FM1 Upper Stage 4.1 17:38:26 10° NW 17:41:39 23° N 17:44:13 13° ENE
Resurs 01 Rocket 2.1 17:38:07 10° SE 17:42:10 37° ENE 17:46:15 10° N
SKYMED 2 3.6 17:37:57 10° NNE 17:42:16 59° E 17:46:34 10° S
GP-B 3.1 17:40:39 10° S 17:45:01 87° W 17:49:25 10° N
Cosmos 2219 Rocket 3.9 17:40:56 10° NW 17:46:01 37° WSW 17:51:05 10° S
COSMO-SKYMED 1 2.9 17:42:39 10° NNE 17:46:32 39° E 17:50:24 10° SSE
Cosmos 2228 4.3 17:44:40 10° NNE 17:47:40 19° ENE 17:49:16 15° E
Cosmos 2292 Rocket 2.8 17:47:34 10° SSW 17:50:26 71° WNW 17:53:31 10° N
Cosmos 2322 4.0 17:45:40 10° NNW 17:51:23 76° WSW 17:57:05 10° SSE
PSLV R/B 3.4 17:47:54 10° SSE 17:51:58 58° ENE 17:56:00 10° N
NOSS 3-3 (A) 4.2 17:47:37 10° S 17:52:28 41° ESE 17:57:36 13° NE
Cosmos 2016 Rocket 4.2 17:47:15 10° NNW 17:53:28 78° W 17:59:44 10° S
USA 306 2.5 17:50:43 10° WNW 17:53:36 42° SSW 17:55:02 16° SE
Resurs 1-3 3.6 17:51:23 10° SSE 17:55:41 83° WSW 18:00:01 10° NNW
Cosmos 2285 Rocket 4.0 17:51:52 10° NNW 17:58:18 67° ENE 18:04:41 10° SE
Cosmos 1025 Rocket 3.1 17:55:09 10° S 17:59:20 55° E 18:03:35 10° NNE
Cosmos 2242 Rocket 4.0 17:55:12 10° SSW 17:59:33 64° WNW 18:03:55 10° N
SL-16 R/B 3.3 17:54:54 10° NNW 17:59:39 26° NE 18:02:26 18° E
SJ-7 4.0 17:56:02 10° SSE 17:59:43 78° ENE 18:03:25 10° NNW
Cosmos 2227 Rocket 3.9 18:02:02 10° SE 18:03:35 14° ESE 18:03:35 14° ESE
NOSS 3-4 (A) 3.8 18:02:13 10° NW 18:08:36 65° NE 18:15:10 14° ESE
NOSS 3-4 (C) 3.8 18:02:28 10° NW 18:08:53 65° NE 18:15:23 14° ESE
SJ-6B 2.8 18:05:38 10° SE 18:08:53 40° ENE 18:12:10 10° N
Cosmos 2233 Rocket 4.2 18:03:10 10° NNW 18:09:26 79° W 18:15:43 10° S
SPOT 5 3.7 18:08:21 19° ESE 18:10:55 30° ENE 18:15:18 10° N
CZ-2D R/B 3.8 18:09:42 10° S 18:13:34 64° WSW 18:17:33 10° NNW
Cosmos 1315 Rocket 4.0 18:11:54 10° NNW 18:15:30 43° W 18:19:06 10° SSW
Cosmos 1674 Rocket 3.6 18:11:09 10° SSW 18:15:32 85° W 18:19:59 10° N
Meteor 1-11 4.3 18:13:21 10° SSW 18:18:59 81° WNW 18:24:46 10° NNE
SL-16 R/B 4.4 18:18:03 10° N 18:23:09 28° NW 18:28:14 10° WSW
Cosmos 1867 3.7 18:17:54 10° SW 18:23:21 77° NW 18:27:56 15° NE
Cosmos 2061 Rocket 4.3 18:18:13 10° NNW 18:24:37 71° W 18:30:53 10° S
ATLAS 2AS CENTAUR R/B 3.7 18:19:23 10° W 18:25:51 40° NNW 18:31:15 14° NE
Cosmos 724 4.4 18:19:54 10° SW 18:26:04 87° NW 18:31:22 14° NE
CZ-4 R/B 2.6 18:28:09 22° NNE 18:28:09 22° NNE 18:30:07 10° N
Lacrosse 5 rocket 0.9 18:23:36 10° WSW 18:27:06 75° NNW 18:28:21 38° NE
CZ-4B R/B 4.1 18:26:45 26° ENE 18:27:25 27° ENE 18:31:47 10° N
Meteor 1-31 Rocket 3.3 18:32:59 33° NE 18:32:59 33° NE 18:35:26 10° N
ADEOS 4.4 18:32:00 28° ENE 18:32:27 29° ENE 18:36:52 10° N
CZ-4C R/B 1.7 18:28:29 10° SW 18:32:49 77° SE 18:36:09 24° NE
IRAS Rocket 4.2 18:30:00 10° SSE 18:35:36 89° ENE 18:41:17 10° NNW
CARTOSAT-1 4.1 18:31:34 10° S 18:35:41 57° W 18:39:52 10° NNW
CRYOSAT 2 4.2 18:31:51 10° N 18:36:45 72° E 18:41:38 10° S
USA 290 3.7 18:37:46 10° SW 18:40:45 35° WNW 18:43:01 15° N
Cosmos 1464 Rocket 4.0 18:38:43 10° N 18:45:06 66° ENE 18:51:23 10° SSE
USA 267 3.4 18:41:48 26° ENE 18:45:44 67° NNW 18:52:13 10° W
CSL-04 Debris 4.2 18:44:38 25° SE 18:47:42 57° ENE 18:53:01 10° N
ERS-1 Rocket 3.8 18:48:49 31° NE 18:48:49 31° NE 18:52:39 10° N
Cosmos 2297 Rocket 2.1 18:43:42 10° SSW 18:49:16 63° ESE 18:52:37 25° NE
Cosmos 1607 4.0 18:43:35 10° SW 18:49:43 78° NW 18:54:10 20° NE
Cosmos 1570 Rocket 4.0 18:45:10 10° S 18:50:19 57° ESE 18:52:48 29° NE
CSL-04 Rocket 3.5 18:47:26 24° SE 18:50:36 63° ENE 18:55:50 10° N
Cosmos 1455 Rocket 3.1 18:46:29 10° NNW 18:50:47 74° W 18:55:03 10° S
Cosmos 1943 4.3 18:46:24 10° NNW 18:51:10 26° NE 18:51:36 26° NE
Cosmos 2344 4.2 18:45:11 10° S 18:51:12 28° ESE 18:51:12 28° ESE
DNEPR-1 R/B 3.8 18:47:50 10° NW 18:52:32 73° NE 18:54:13 43° ESE
Cosmos 2221 Rocket 4.3 18:53:47 10° SSW 18:58:09 54° WNW 19:02:36 10° N
Meteor 1-27 4.5 18:55:54 10° NNW 19:01:39 71° W 19:07:25 10° S
PAYLOAD B 4.2 19:05:27 49° ESE 19:06:36 59° ENE 19:12:07 10° N
Cosmos 2208 Rocket 4.0 19:02:23 10° S 19:07:29 57° ESE 19:07:29 57° ESE
Terra 3.0 19:11:53 28° NNE 19:11:53 28° NNE 19:14:30 10° N
NOSS 3-3 (C) 3.8 19:08:35 10° SW 19:13:59 83° NW 19:16:44 36° NE
CZ-4B R/B 4.0 19:14:51 66° SW 19:15:09 70° WSW 19:19:05 10° NNW
Meteor 2-17 Rocket 4.3 19:10:15 10° S 19:16:19 90° WNW 19:22:26 10° N
Resurs 01 Rocket 3.4 19:14:42 10° SSW 19:18:36 31° W 19:22:32 10° NNW
Cosmos 2237 Rocket 3.2 19:15:09 10° NW 19:20:31 45° WSW 19:25:53 10° S
ARIANE 6 FM1 Upper Stage 3.6 19:17:30 10° NW 19:20:14 37° NNW 19:20:14 37° NNW
Cosmos 44 Rocket 4.4 19:18:37 10° SSW 19:21:21 31° S 19:21:21 31° S
Cosmos 773 Rocket 3.8 19:19:33 10° SSW 19:24:49 81° ESE 19:25:06 77° ENE
Cosmos 2228 3.4 19:20:54 10° NNW 19:25:00 57° W 19:25:36 51° SW
Orbus 7S? 4.4 19:20:24 10° WNW 19:28:13 53° SW 19:28:58 47° SSW
Cosmos 2150 Rocket 4.4 19:27:21 10° NNW 19:32:26 58° WSW 19:33:58 41° SSW
Cosmos 2298 Rocket 4.4 19:27:57 10° NNW 19:33:11 61° WSW 19:34:42 43° SSW
NOSS 3-3 (A) 4.3 19:37:41 10° WSW 19:43:05 57° NNW 19:45:02 41° NNE
SL-16 R/B 2.1 19:38:46 10° NNW 19:44:20 85° WNW 19:44:20 85° WNW
Cosmos 2227 Rocket 3.3 19:42:33 10° SSW 19:45:30 32° SSW 19:45:30 32° SSW
SPOT 5 3.7 19:47:22 39° SW 19:48:38 48° W 19:53:32 10° NNW
MOS 1 4.2 19:49:14 84° W 19:49:14 84° W 19:54:56 10° NNW
Okean O Rocket 4.1 20:02:07 15° N 20:02:07 15° N 20:02:51 10° N
Cosmos 2034 Rocket 4.4 19:54:36 10° NNW 20:00:38 59° W 20:02:53 38° SSW
CZ-4 R/B 3.8 20:03:09 18° NW 20:03:09 18° NW 20:04:20 10° NNW
Lacrosse 5 rocket 3.9 20:00:54 10° WNW 20:01:48 16° WNW 20:01:48 16° WNW
CZ-4B R/B 3.7 20:08:36 53° NW 20:08:36 53° NW 20:12:56 10° NNW
BREEZE-M DEB (TANK) 4.2 19:56:39 10° WSW 20:10:46 52° SSW 20:10:46 52° SSW
Cosmos 1634 Rocket 4.2 20:04:39 10° NNW 20:10:07 67° NNW 20:10:07 67° NNW
ADEOS 4.4 20:12:43 47° WNW 20:12:43 47° WNW 20:16:48 10° NNW
ATLAS 2AS CENTAUR R/B 3.7 20:12:16 10° WNW 20:18:24 33° N 20:18:40 33° NNE
CZ-4C R/B 3.3 20:17:03 10° W 20:21:07 36° NNW 20:21:07 36° NNW
USA 267 3.6 20:29:08 60° NNW 20:29:08 60° NNW 20:34:55 10° WNW
Cosmos 2297 Rocket 3.6 20:28:36 10° WSW 20:33:42 33° NW 20:34:29 32° NNW
Terra 4.3 20:50:29 18° NW 20:50:29 18° NW 20:51:59 10° NNW
